"Pseudo-MPEC" for P110ClU

Created 2020 May 27 22:07:09 UT using Find_Orb

Click here for an explanation of pseudo-MPECs

 
 Astrometry: 
     P110ClU  C2020 05 20CPC[nv/H.df@(sl#8tCN4`$#E(4Nq7qH5-p1ssAstrometry's_!F51
     P110ClU  C2020 05 20VXG3JAVredacted;yUq#2_!Dclick0loXhere')lseTOJU_]saw)F51
     P110ClU  C2020 05 20:Sq?pV@ng3dy:@(am^G4+VMh2F)0*D=*;\UL#Im6gF*.)EUforgLF51
     P110ClU  C2020 05 20#UW3)yF)(03MrB/MH2P;;aDexplanation,[2X8AiLJhL.q\uw/mF51

Station data:
(F51) Pan-STARRS 1, Haleakala  (N20.707235 W156.255910)  US/Hawaii.
   Observers N. Primak, A. Schultz, S. Watters, J. Thiel, T. Goggia. Measurer
   PS1 Science Consortium. 1.8-m Ritchey-Chrétien + CCD.

Orbital elements:  P110ClU
   Perihelion 2020 May 28.704256 +/- 49.1 TT = 16:54:07 (JD 2458998.204256)
Epoch 2020 May 20.0 TT = JDT 2458989.5   Earth MOID: 0.3946   Ma: 0.0995
M 357.39943934 +/- 20               (J2000 ecliptic)          AutoNEOCP
n   0.29876886 +/- 0.263            Peri.    8.79099 +/- 57
a   2.21604797 +/- 1.29             Node   240.19362 +/- 30
e   0.3646946 +/- 0.25              Incl.    6.35099 +/- 4.5
P   3.30                   H 22.9   G  0.15   U 11.8  SR
q 1.40786705 +/- 0.425    Q 3.02422889 +/- 76.4
From 4 observations 2020 May 20 (39.8 min); mean residual 0".10
Residuals in arcseconds: 
200520 F51  .01-  .09-    200520 F51  .03+  .22+    
200520 F51  .00   .02+    200520 F51  .02-  .15-    

Ephemerides (geocentric):
Date (UTC) HH   RA              Dec         delta   r     elong  mag " sig PA
---- -- -- --  -------------   -----------  ------ ------ -----  --- ---- ---
2020 05 27 22  16 45 57.976   -19 05 52.23  .39634 1.4079 173.4 22.1  41d 170
2020 05 27 23  16 45 58.223   -19 05 11.34  .39631 1.4079 173.5 22.1  41d 169
2020 05 28 00  16 45 58.469   -19 04 30.45  .39629 1.4079 173.5 22.1  42d 169
2020 05 28 01  16 45 58.713   -19 03 49.56  .39626 1.4079 173.5 22.1  42d 169
2020 05 28 02  16 45 58.956   -19 03 08.67  .39624 1.4079 173.5 22.1  42d 169
2020 05 28 03  16 45 59.199   -19 02 27.79  .39621 1.4079 173.6 22.1  42d 168
2020 05 28 04  16 45 59.440   -19 01 46.90  .39619 1.4079 173.6 22.1  43d 168
2020 05 28 05  16 45 59.680   -19 01 06.02  .39617 1.4079 173.6 22.1  43d 168
2020 05 28 06  16 45 59.919   -19 00 25.15  .39614 1.4079 173.7 22.1  43d 168
2020 05 28 07  16 46 00.157   -18 59 44.27  .39612 1.4079 173.7 22.1  44d 168
2020 05 28 08  16 46 00.394   -18 59 03.40  .39610 1.4079 173.7 22.1  44d 168
2020 05 28 09  16 46 00.630   -18 58 22.53  .39607 1.4079 173.7 22.1  44d 168
2020 05 28 10  16 46 00.865   -18 57 41.67  .39605 1.4079 173.8 22.1  44d 168
2020 05 28 11  16 46 01.098   -18 57 00.81  .39603 1.4079 173.8 22.1  44d 168
2020 05 28 12  16 46 01.331   -18 56 19.95  .39601 1.4079 173.8 22.1  44d 168
2020 05 28 13  16 46 01.563   -18 55 39.09  .39598 1.4079 173.9 22.1  44d 169
2020 05 28 14  16 46 01.793   -18 54 58.24  .39596 1.4079 173.9 22.1  44d 169
2020 05 28 15  16 46 02.023   -18 54 17.40  .39594 1.4079 173.9 22.1  44d 169
2020 05 28 16  16 46 02.252   -18 53 36.55  .39592 1.4079 173.9 22.1  44d 169
2020 05 28 17  16 46 02.479   -18 52 55.71  .39590 1.4079 174.0 22.1  44d 169
2020 05 28 18  16 46 02.706   -18 52 14.87  .39588 1.4079 174.0 22.1  44d 169
2020 05 28 19  16 46 02.932   -18 51 34.04  .39586 1.4079 174.0 22.1  44d 169
2020 05 28 20  16 46 03.157   -18 50 53.21  .39584 1.4079 174.0 22.1  44d 169
2020 05 28 21  16 46 03.380   -18 50 12.39  .39582 1.4079 174.1 22.1  44d 169
2020 05 28 22  16 46 03.603   -18 49 31.57  .39580 1.4079 174.1 22.1  44d 169
2020 05 28 23  16 46 03.825   -18 48 50.75  .39578 1.4079 174.1 22.1  44d 169
2020 05 29 00  16 46 04.046   -18 48 09.94  .39576 1.4079 174.1 22.1  44d 169
2020 05 29 01  16 46 04.266   -18 47 29.14  .39574 1.4079 174.2 22.0  44d 169
2020 05 29 02  16 46 04.485   -18 46 48.34  .39572 1.4079 174.2 22.0  44d 169
2020 05 29 03  16 46 04.703   -18 46 07.54  .39570 1.4079 174.2 22.0  44d 169
2020 05 29 04  16 46 04.921   -18 45 26.75  .39569 1.4079 174.2 22.0  44d 169
2020 05 29 05  16 46 05.137   -18 44 45.96  .39567 1.4079 174.3 22.0  45d 169
2020 05 29 06  16 46 05.353   -18 44 05.18  .39565 1.4079 174.3 22.0  45d 169
2020 05 29 07  16 46 05.567   -18 43 24.40  .39563 1.4079 174.3 22.0  45d 169
2020 05 29 08  16 46 05.781   -18 42 43.63  .39562 1.4079 174.3 22.0  45d 169
2020 05 29 09  16 46 05.994   -18 42 02.87  .39560 1.4079 174.4 22.0  45d 169
2020 05 29 10  16 46 06.206   -18 41 22.11  .39558 1.4079 174.4 22.0  45d 169
2020 05 29 11  16 46 06.417   -18 40 41.35  .39557 1.4079 174.4 22.0  45d 169
2020 05 29 12  16 46 06.627   -18 40 00.61  .39555 1.4079 174.4 22.0  45d 169
2020 05 29 13  16 46 06.837   -18 39 19.86  .39553 1.4079 174.5 22.0  45d 169
2020 05 29 14  16 46 07.045   -18 38 39.13  .39552 1.4079 174.5 22.0  45d 170
2020 05 29 15  16 46 07.253   -18 37 58.40  .39550 1.4079 174.5 22.0  45d 170
2020 05 29 16  16 46 07.460   -18 37 17.67  .39549 1.4079 174.5 22.0  45d 170
2020 05 29 17  16 46 07.667   -18 36 36.95  .39547 1.4079 174.6 22.0  45d 170
2020 05 29 18  16 46 07.872   -18 35 56.24  .39546 1.4079 174.6 22.0  45d 170
2020 05 29 19  16 46 08.077   -18 35 15.54  .39545 1.4079 174.6 22.0  45d 170
2020 05 29 20  16 46 08.281   -18 34 34.84  .39543 1.4079 174.6 22.0  45d 170
2020 05 29 21  16 46 08.484   -18 33 54.14  .39542 1.4079 174.6 22.0  45d 170